sat.trackr.live / text

‹ back to catalog

STARLINK-4370

NORAD 53231 · 2022-084AU

PAYLOAD ACTIVE UNKNOWN

§ Identity

Operator
Country
US
Launch date
2022-07-22
Launch site
AFWTR
Launch vehicle
Mass (kg)
RCS (m²)

Purposes: comms

External: N2YO · Heavens-Above · Gunter

§ Orbital elements

Epoch: 2026-05-25T02:29:00.168288Z

Period
95.64 min
Inclination
97.4492°
Eccentricity
0.0001206
Mean motion
15.05663693 rev/d
Perigee alt
548.6 km
Apogee alt
550.3 km
Semi-major
6,927.6 km
B*
-1.0392e-4
RAAN
206.1654°
Arg perigee
113.3922°
Mean anomaly
246.7432°
Rev number
21,088

§ Raw data

STARLINK-43701 53231U 22084AU  26145.10347417 -.00001558  00000+0 -10392-3 0  99932 53231  97.4492 206.1654 0001206 113.3922 246.7432 15.05663693210886

JSON: /api/v1/satellites/53231 · /tle

For live sub-satellite position, see the globe view (requires WebGL).

§ Visibility from observer

Set your observer location to see the next 7 days of passes ≥ 10°. The values pass through the URL so the page stays shareable.

No JS? Fill the form by hand. The geolocation button needs JavaScript.